This demonstration page uses our WeatherBlox Daily Observations layout. Learn more.

Left ArrowRight Arrow

Hourly Observations for June 16, 2015

Temp ( °F °C ) Dew Point ( °F °C ) Humidity (%) Winds ( mph kmh ) Pressure ( in mb ) Visibility ( mi km ) Precip ( " mm )
12:59 am 00:59 Mostly Cloudy 81 27.2 79 26.1 94 94 Calm 30.01 1016 10 16 0.00 0.00
1:59 am 01:59 Partly Cloudy 81 27.2 78 25.6 91 91 Calm 29.99 1016 10 16 0.00 0.00
2:59 am 02:59 Mostly Clear 80 26.7 76 24.4 87 87 S 9 15 29.97 1015 10 16 0.00 0.00
3:59 am 03:59 Mostly Clear 79 26.1 74 23.3 85 85 SSW 8 13 29.97 1015 10 16 0.00 0.00
4:59 am 04:59 Mostly Clear 81 27.2 76 24.4 85 85 SSW 9 15 29.97 1015 10 16 0.00 0.00
5:59 am 05:59 Mostly Cloudy 78 25.6 73 22.8 85 85 WSW 6 9 29.98 1015 10 16 0.00 0.00
6:59 am 06:59 Mostly Cloudy 80 26.7 71 21.7 74 74 W 7 11 29.98 1015 10 16 0.00 0.00
7:59 am 07:59 Mostly Cloudy 85 29.6 71 21.7 63 63 W 8 13 30.00 1016 10 16 0.00 0.00
8:23 am 08:23 Mostly Cloudy 85 29.4 71 21.7 63 63 W 8 13 30.00 1016 10 16 0.00 0.00
8:59 am 08:59 Mostly Cloudy 89 31.7 71 21.7 55 55 W 9 15 30.00 1016 10 16 0.00 0.00
9:59 am 09:59 Mostly Cloudy 91 32.8 70 21.1 50 50 W 9 15 29.99 1016 10 16 0.00 0.00
10:59 am 10:59 Mostly Cloudy 92 33.3 69 20.6 47 47 WNW 10 17 29.99 1016 10 16 0.00 0.00
11:59 am 11:59 Mostly Cloudy 95 35 68 20 41 41 W 13 20 29.98 1015 10 16 0.00 0.00
12:59 pm 12:59 Partly Cloudy 96 35.6 67 19.4 39 39 WNW 13 20 29.97 1015 10 16 0.00 0.00
1:59 pm 13:59 Partly Cloudy 97 36.1 66 18.9 36 36 WNW 13 20 29.94 1014 10 16 0.00 0.00
2:59 pm 14:59 Mostly Cloudy 98 36.7 65 18.3 34 34 NW 12 19 29.95 1014 10 16 0.00 0.00
3:59 pm 15:59 Mostly Cloudy 98 36.7 66 18.9 35 35 NW 12 19 29.93 1014 10 16 0.00 0.00
4:59 pm 16:59 Mostly Cloudy 98 36.7 67 19.4 36 36 NW 13 20 29.92 1013 10 16 0.00 0.00
5:59 pm 17:59 Partly Cloudy 96 35.6 74 23.3 49 49 W 16 26 29.92 1013 7 11 0.00 0.00
6:59 pm 18:59 Partly Cloudy 96 35.6 72 22.2 46 46 W 15 24 29.92 1013 7 11 0.00 0.00
7:59 pm 19:59 Mostly Cloudy 93 33.9 75 23.9 56 56 W 10 17 29.93 1014 7 11 0.00 0.00
8:59 pm 20:59 Mostly Cloudy 92 33.3 74 23.3 56 56 W 8 13 29.94 1014 7 11 0.00 0.00
9:21 pm 21:21 Mostly Cloudy with Thunderstorms 88 31.1 75 23.9 66 66 NW 10 17 29.97 1015 7 11 0.00 0.00
9:59 pm 21:59 Mostly Cloudy with Thunderstorms 85 29.4 82 27.8 91 91 WNW 12 19 30.00 1016 7 11 0.01 0.25
10:54 pm 22:54 Cloudy with Thunderstorms 79 26 75 24 89 89 W 10 17 30.00 1016 7 11 0.00 0.00
10:59 pm 22:59 Cloudy with Thunderstorms 78 25.6 76 24.4 93 93 W 10 17 30.00 1016 7 11 0.05 1.27
11:41 pm 23:41 Cloudy with Light Rain 78 25.6 76 24.4 93 93 W 9 15 30.00 1016 7 11 0.00 0.00
11:59 pm 23:59 Cloudy with Light Rain 79 26.1 79 26.1 100 100 WSW 6 9 29.99 1016 7 11 0.03 0.76

Powered by AerisWeather